www.pogodaiklimat.ru

Погода и климат >> Архив погоды >> Россия >> Свердловская область >> Тавда


ПОГОДА в Тавде

  • Прогноз погоды в Тавде
  • Монитор погоды в Тавде

АРХИВ ПОГОДЫ в Тавде

Время (UTC), дата Ветер
(напр.,м/с)
 
Видим.   Явления Облачность Т
(С)
Тd
(С)
f
(%)
Тe
(С)
Тes
(С)
Комфортность P
(гПа)
Po
(гПа)
Тmin
(С)
Tmax
(С)
R
(мм)
R24
(мм)
S
(см)
00 18.06 ЮЗ 1 10 км {ливн. осадки} 10/10 600 м
[Cb cap]
+9.4 +8.4 93 +9 +9 1002.6 995.4
03 18.06 З 1 10 км в посл. час ливневой дождь 10/6 600 м
[Cb cap Ac und]
+10.6 +8.6 87 +10 +11 1003.4 996.2 +9.1 0.8
06 18.06 СЗ 2 10 км {ливн. осадки} 10/6 600 м
[Cb cap Ac und]
+13.6 +7.7 67 +13 +15 1003.4 996.3
09 18.06 СЗ 4
{10}
10 км 10/4 600 м
[Cb cap Ac trans Ci fib]
+15.4 +4.6 48 +15 +17 1004.2 997.2
12 18.06 З 5 10 км 10/3 600 м
[Cb cap Ac trans Ci fib]
+15.8 +0.9 36 +15 +16 1004.9 997.8
15 18.06 З 2 10 км 8/3 1000 м
[Sc diur, vesp Ac trans Ci fib]
+15.4 +1.2 38 +15 +16 1005.5 998.5 +16.6 0.6
18 18.06 ЮЗ 1 10 км 10/3 1000 м
[Sc diur, vesp Ac trans Ci fib]
+9.2 +4.4 72 +9 +9 1006.1 998.9
21 18.06 Ю 1 10 км 10/10 600 м
[Sc]
+10.3 +3.7 64 +10 +10 1005.4 998.2
00 19.06 ЮЗ 1 10 км 10/3 600 м
[Sc Ac trans Ci fib]
+9.4 +4.8 73 +9 +9 1006.0 998.8
03 19.06 Ю 1 10 км 10/0
[Ac trans Ci fib]
+14.6 +6.9 60 +15 +19 1006.8 999.7 +6.9
06 19.06 ЮЗ 3 10 км 10/0
[Ac und]
+13.8 +7.6 66 +13 +16 1007.3 1000.1
09 19.06 ЮЗ 3 10 км 10/5 600 м
[Sc Ac trans Ci fib]
+19.1 +8.4 50 +20 +23 1006.6 999.6
12 19.06 СЗ 5-10
{10}
10 км гроза, ливневой дождь 10/10 600 м
[Cb calv]
+14.7 +11.9 83 +13 +13 1007.1 1000.0
15 19.06 Ю 1
{10}
10 км {гроза, ливн. осадки} 6/0
[Ac trans]
+15.7 +13.8 88 +16 +17 1007.1 1000.0 +20.6 11
18 19.06 штиль 0 10 км {гроза, ливн. осадки} 3/3 600 м
[Cb cap]
+11.0 +10.3 95 +10 +10 1007.8 1000.6
21 19.06 ЮЗ 2 10 км 3/0
[Ac trans]
+11.5 +8.9 84 +10 +10 1007.7 1000.5
00 20.06 ЮЗ 2 10 км 10/0
[Ac trans Ci fib]
+11.2 +8.7 85 +10 +10 1008.1 1000.9
03 20.06 З 2 10 км 10/0
[Ac trans Ci fib]
+16.0 +11.7 76 +16 +20 1009.1 1002.0 +9.6
06 20.06 ЮЗ 2 10 км 4/0
[Ac trans]
+21.7 +11.0 51 +24 +34 комфорт 1009.2 1002.2
09 20.06 З 4 10 км 10/3 600 м
[Cu hum Ac trans Ci fib]
+24.6 +5.9 30 +24 +28 комфорт 1008.4 1001.5
12 20.06 З 2
{12}
10 км в посл. час ливневой дождь 10/6 600 м
[Cb cap Ac trans Ci fib]
+19.0 +13.0 68 +21 +22 комфорт 1008.1 1001.1
15 20.06 ЮВ 1 10 км слаб. ливневой дождь 10/6 600 м
[Cb cap Ac und]
+16.8 +15.4 91 +18 +18 1006.9 999.9 +25.0 0.8
18 20.06 ЮЗ 2 10 км {ливн. осадки} 10/4 600 м
[Cb cap Ac und]
+14.7 +13.4 92 +14 +14 1006.5 999.4
21 20.06 ЮЗ 2 10 км 10/4 600 м
[Cb cap Ac trans Ci fib]
+14.5 +13.2 92 +14 +14 1005.6 998.6
00 21.06 З 4 10 км 10/10 600 м
[Cb cap]
+14.3 +12.6 90 +13 +13 1006.3 999.2
03 21.06 СЗ 5 10 км 6/6 600 м
[Sc diur, vesp]
+16.2 +9.6 65 +15 +16 1007.6 1000.5 +13.8 0.7
06 21.06 З 4 10 км 8/8 1000 м
[Cb calv]
+18.3 +7.9 51 +18 +20 1008.3 1001.2
09 21.06 З 5
{10}
10 км 6/6 1000 м
[Sc]
+20.1 +6.3 41 +21 +24 комфорт 1008.5 1001.6
12 21.06 ЮЗ 3 10 км в посл. час ливневой дождь 6/6 600 м
[Cb calv]
+16.3 +8.9 62 +16 +18 1009.3 1002.2
15 21.06 СЗ 5-10
{11}
10 км {ливн. осадки} 10/10 600 м
[Cb cap]
+14.5 +3.7 48 +13 +13 1011.9 1004.7 +20.5 0.4
18 21.06 З 2
{12}
10 км {ливн. осадки} 3/0
[Ac trans]
+9.4 +0.2 53 +8 +8 1013.9 1006.6
21 21.06 З 2 10 км ясно +7.6 +1.1 63 +6 +6 1014.9 1007.6
00 22.06 З 1 10 км ясно +5.6 +1.9 77 +5 +5 1016.5 1009.1
03 22.06 СЗ 4 10 км ясно +10.3 +2.0 56 +8 +12 1017.6 1010.3 +5.2
06 22.06 СЗ 5 10 км 8/8 1000 м
[Cu hum]
+12.8 -1.9 36 +11 +12 1018.1 1010.8
09 22.06 СЗ 4 10 км 10/3 1000 м
[Cu hum Ci fib]
+15.7 -0.9 32 +15 +20 1017.7 1010.6
12 22.06 З 3 10 км 10/0
[Ac trans Ci fib]
+17.5 +1.1 33 +18 +21 1016.9 1009.8
15 22.06 штиль 0 10 км 10/4 600 м
[Sc Ac und]
+15.8 +5.6 51 +16 +16 1016.2 1009.1 +18.0
18 22.06 Ю 1 10 км 10/4 600 м
[Sc Ac und]
+13.0 +8.1 72 +13 +13 1015.7 1008.6
21 22.06 Ю 1 10 км слаб. ливневой дождь 10/6 600 м
[Cb cap Ac und]
+11.0 +10.0 94 +11 +11 1014.4 1007.2
00 23.06 Ю 1 10 км слаб. ливневой дождь 10/10 600 м
[Cb cap]
+11.3 +10.3 94 +11 +11 1012.4 1005.2
03 23.06 Ю 1 10 км в посл. час ливневой дождь 10/5 600 м
[Cb cap Ac und]
+12.3 +11.0 92 +12 +13 1010.6 1003.5 +10.9 4
06 23.06 Ю 1 10 км {ливн. осадки} 10/0
[Ac trans Ci fib]
+19.5 +12.9 66 +22 +32 комфорт 1008.7 1001.7
09 23.06 Ю 1 10 км 10/10 600 м
[Sc]
+22.9 +14.6 59 +27 +27 душно 1007.3 1000.4
12 23.06 Ю 1 10 км 10/4 600 м
[Cb cap Ac und]
+23.3 +16.0 64 +28 +29 душно 1006.2 999.4
15 23.06 штиль 0 1000 м ливневой дождь {гроза} 10/10 600 м
[Cb cap]
+18.9 +18.2 96 +20 +20 1006.8 999.9 +24.9 3
18 23.06 штиль 0 4000 м дымка {гроза, ливн. осадки} 10/4 600 м
[Cb cap Ac und]
+18.1 +17.5 96 +18 +18 1006.9 999.9
21 23.06 ЮЗ 1 4000 м дымка 10/0
[Ac und]
+17.3 +16.8 97 +18 +18 1007.0 1000.0
00 24.06 З 1 500 м туман 10/0
[Ac und]
+17.2 +16.6 96 +18 +18 1007.7 1000.7
03 24.06 З 2 1000 м дымка {туман} 10/0
[Ac und]
+17.8 +17.2 96 +18 +20 1009.0 1002.0 +16.9 2
06 24.06 С 2 10 км {туман} 10/8 600 м
[Sc Ci fib]
+22.4 +17.6 74 +27 +29 душно 1009.4 1002.5
09 24.06 З 2 10 км 10/6 600 м
[Cb cap Ac trans Ci fib]
+26.0 +12.6 43 +28 +30 жарко 1009.1 1002.3
12 24.06 СЗ 4 10 км 6/4 600 м
[Sc diur, vesp Ac trans]
+25.4 +11.9 43 +27 +29 жарко 1009.8 1003.0
15 24.06 СЗ 2 10 км 10/0
[Ac trans Ci fib]
+23.4 +12.1 49 +26 +26 жарко 1011.0 1004.1 +27.3
18 24.06 ЮЗ 1 10 км 10/0
[Ac trans Ci fib]
+13.8 +12.2 90 +14 +14 1012.4 1005.3
21 24.06 С 1 10 км 10/0
[Ac trans Ci fib]
+12.9 +8.1 73 +13 +13 1013.2 1006.0

 

Местоположение метеостанции Тавда (Свердловская область, Россия): широта 58.07 долгота 65.27 высота над уровнем моря 60 м.

В архиве по умолчанию представлена погода в Тавде за последнюю неделю. Архивные данные за месяц целиком и за предыдущие месяцы, начиная с января 2011 года, Вы можете получить, выбрав интересующий диапазон дат из раскрывающегося списка и нажав кнопку "Ввод!".


*Определитесь, кто Вы:
робот инопланетянин человек

Внимание! Время в таблицах - всемирное. Для получения местного времени необходимо прибавить поправку, которая равна 5 ч.

Смотрите также архив погоды в соседних городах и на ближайших метеорологических станциях:

Погода в Таборах (Свердловская область, Россия) (68 км)
Погода в Нижней Тавде (Тюменская область, Россия) (69 км)
Погода в Куминской (Ханты-Мансийский АО, Россия) (86 км)
Погода в Туринске (Свердловская область, Россия) (94 км)
Погода в Тюмени (Тюменская область, Россия) (106 км)
Погода в Тугулыме (Свердловская область, Россия) (117 км)
Погода в Ярково (Тюменская область, Россия) (129 км)
Погода в Ирбите (Свердловская область, Россия) (145 км)
Погода в Ялуторовске (Тюменская область, Россия) (168 км)
Погода в Бутке (Свердловская область, Россия) (175 км)

Пояснения к столбцам:

Ветер - указаны скорость ветра в м/с - средняя за 10 мин, порывы в срок и между сроками (в фигурных скобках) и направление, откуда дует ветер: С - северный, СВ - северо-восточный, В - восточный, ЮВ - юго-восточный, Ю - южный, ЮЗ - юго-западный, З - западный, СЗ - северо-западный.
Видимость - горизонтальная дальность видимости в метрах или километрах. При видимости от 1 до 10 км при отсутствии осадков обычно наблюдается дымка, при ухудшении видимости до 1 км и менее - туман. В сухую погоду видимость может ухудшаться дымом, пылью или мглою.
Явления - указаны атмосферные явления, наблюдавшиеся в срок или в последний час перед сроком; фигурными скобками обозначены явления, наблюдавшиеся между сроками (за 1-3 часа до срока); квадратными скобками обозначены град или гололедные отложения с указанием их диаметра в мм.
Облачность - указаны через наклонную черту общая и нижняя облачность в баллах и высота нижней границы облаков в метрах; квадратными скобками обозначены формы облаков: Ci - перистые, Cs - перисто-слоистые, Cc - перисто-кучевые, Ac - высококучевые, As - высокослоистые, Sc - слоисто-кучевые, Ns - слоисто-дождевые, Cu - кучевые, Cb - кучево-дождевые. Подробнее классификацию облаков см. в Атласе облаков (PDF).
T - Температура воздуха - температура, измеренная на высоте 2 м над землей.
Td - Температура точки росы - температура, при понижении до которой содержащийся в воздухе водяной пар достигнет насыщения.
f - Относительная влажность воздуха - влажноcть воздуха, измеренная на высоте 2 м над землей.
Te - Эффективная температура - температура, которую ощущает одетый по сезону человек в тени. Характеристика душности погоды. При расчете учитывается влияние влажности воздуха и скорости ветра на теплоощущения человека.
Tes - Эффективная температура на солнце - температура, которую ощущает человек, с поправкой на солнечный нагрев. Характеристика знойности погоды. Зависит от высоты солнца над горизонтом, облачности и скорости ветра. Ночью, в пасмурную погоду, а также при ветре 12 м/с и более поправка равна нулю.
P - Атмосферное давление - приведенное к уровню моря атмосферное давление.
Po - Атмосферное давление - измеренное на уровне метеостанции атмосферное давление.
Tmin - Минимальная температура - минимум температуры воздуха на высоте 2 м над землей.
Tmax - Максимальная температура - максимум температуры воздуха на высоте 2 м над землей.
R - Количество осадков - Количество выпавших осадков за период времени, мм. При наведении курсора мыши на число - период времени, за который выпало указанное количество осадков.
R24 - Количество осадков - Количество выпавших осадков за 24 часа, мм.
S - Снежный покров - Высота снежного покрова, см. При наведении курсора мыши на число - состояние снежного покрова и степень покрытия местности в баллах.